Year,Month,Day,Hour,Minute,Value (Times are PST for insolation in W/m^2)
2015,01,27,00,00,0.00
2015,01,27,00,01,0.00
2015,01,27,00,02,0.00
2015,01,27,00,03,0.00
2015,01,27,00,04,0.00
2015,01,27,00,05,0.00
2015,01,27,00,06,0.00
2015,01,27,00,07,0.00
2015,01,27,00,08,0.00
2015,01,27,00,09,0.00
2015,01,27,00,10,0.00
2015,01,27,00,11,0.00
2015,01,27,00,12,0.00
2015,01,27,00,13,0.00
2015,01,27,00,14,0.00
2015,01,27,00,15,0.00
2015,01,27,00,16,0.00
2015,01,27,00,17,0.00
2015,01,27,00,18,0.00
2015,01,27,00,19,0.00
2015,01,27,00,20,0.00
2015,01,27,00,21,0.00
2015,01,27,00,22,0.00
2015,01,27,00,23,0.00
2015,01,27,00,24,0.00
2015,01,27,00,25,0.00
2015,01,27,00,26,0.00
2015,01,27,00,27,0.00
2015,01,27,00,28,0.00
2015,01,27,00,29,0.00
2015,01,27,00,30,0.00
2015,01,27,00,31,0.00
2015,01,27,00,32,0.00
2015,01,27,00,33,0.00
2015,01,27,00,34,0.00
2015,01,27,00,35,0.00
2015,01,27,00,36,0.00
2015,01,27,00,37,0.00
2015,01,27,00,38,0.00
2015,01,27,00,39,0.00
2015,01,27,00,40,0.00
2015,01,27,00,41,0.00
2015,01,27,00,42,0.00
2015,01,27,00,43,0.00
2015,01,27,00,44,0.00
2015,01,27,00,45,0.00
2015,01,27,00,46,0.00
2015,01,27,00,47,0.00
2015,01,27,00,48,0.00
2015,01,27,00,49,0.00
2015,01,27,00,50,0.00
2015,01,27,00,51,0.00
2015,01,27,00,52,0.00
2015,01,27,00,53,0.00
2015,01,27,00,54,0.00
2015,01,27,00,55,0.00
2015,01,27,00,56,0.00
2015,01,27,00,57,0.00
2015,01,27,00,58,0.00
2015,01,27,00,59,0.00
2015,01,27,01,00,0.00
2015,01,27,01,01,0.00
2015,01,27,01,02,0.00
2015,01,27,01,03,0.00
2015,01,27,01,04,0.00
2015,01,27,01,05,0.00
2015,01,27,01,06,0.00
2015,01,27,01,07,0.00
2015,01,27,01,08,0.00
2015,01,27,01,09,0.00
2015,01,27,01,10,0.00
2015,01,27,01,11,0.00
2015,01,27,01,12,0.00
2015,01,27,01,13,0.00
2015,01,27,01,14,0.00
2015,01,27,01,15,0.00
2015,01,27,01,16,0.00
2015,01,27,01,17,0.00
2015,01,27,01,18,0.00
2015,01,27,01,19,0.00
2015,01,27,01,20,0.00
2015,01,27,01,21,0.00
2015,01,27,01,22,0.00
2015,01,27,01,23,0.00
2015,01,27,01,24,0.00
2015,01,27,01,25,0.00
2015,01,27,01,26,0.00
2015,01,27,01,27,0.00
2015,01,27,01,28,0.00
2015,01,27,01,29,0.00
2015,01,27,01,30,0.00
2015,01,27,01,31,0.00
2015,01,27,01,32,0.00
2015,01,27,01,33,0.00
2015,01,27,01,34,0.00
2015,01,27,01,35,0.00
2015,01,27,01,36,0.00
2015,01,27,01,37,0.00
2015,01,27,01,38,0.00
2015,01,27,01,39,0.00
2015,01,27,01,40,0.00
2015,01,27,01,41,0.00
2015,01,27,01,42,0.00
2015,01,27,01,43,0.00
2015,01,27,01,44,0.00
2015,01,27,01,45,0.00
2015,01,27,01,46,0.00
2015,01,27,01,47,0.00
2015,01,27,01,48,0.00
2015,01,27,01,49,0.00
2015,01,27,01,50,0.00
2015,01,27,01,51,0.00
2015,01,27,01,52,0.00
2015,01,27,01,53,0.00
2015,01,27,01,54,0.00
2015,01,27,01,55,0.00
2015,01,27,01,56,0.00
2015,01,27,01,57,0.00
2015,01,27,01,58,0.00
2015,01,27,01,59,0.00
2015,01,27,02,00,0.00
2015,01,27,02,01,0.00
2015,01,27,02,02,0.00
2015,01,27,02,03,0.00
2015,01,27,02,04,0.00
2015,01,27,02,05,0.00
2015,01,27,02,06,0.00
2015,01,27,02,07,0.00
2015,01,27,02,08,0.00
2015,01,27,02,09,0.00
2015,01,27,02,10,0.00
2015,01,27,02,11,0.00
2015,01,27,02,12,0.00
2015,01,27,02,13,0.00
2015,01,27,02,14,0.00
2015,01,27,02,15,0.00
2015,01,27,02,16,0.00
2015,01,27,02,17,0.00
2015,01,27,02,18,0.00
2015,01,27,02,19,0.00
2015,01,27,02,20,0.00
2015,01,27,02,21,0.00
2015,01,27,02,22,0.00
2015,01,27,02,23,0.00
2015,01,27,02,24,0.00
2015,01,27,02,25,0.00
2015,01,27,02,26,0.00
2015,01,27,02,27,0.00
2015,01,27,02,28,0.00
2015,01,27,02,29,0.00
2015,01,27,02,30,0.00
2015,01,27,02,31,0.00
2015,01,27,02,32,0.00
2015,01,27,02,33,0.00
2015,01,27,02,34,0.00
2015,01,27,02,35,0.00
2015,01,27,02,36,0.00
2015,01,27,02,37,0.00
2015,01,27,02,38,0.00
2015,01,27,02,39,0.00
2015,01,27,02,40,0.00
2015,01,27,02,41,0.00
2015,01,27,02,42,0.00
2015,01,27,02,43,0.00
2015,01,27,02,44,0.00
2015,01,27,02,45,0.00
2015,01,27,02,46,0.00
2015,01,27,02,47,0.00
2015,01,27,02,48,0.00
2015,01,27,02,49,0.00
2015,01,27,02,50,0.00
2015,01,27,02,51,0.00
2015,01,27,02,52,0.00
2015,01,27,02,53,0.00
2015,01,27,02,54,0.00
2015,01,27,02,55,0.00
2015,01,27,02,56,0.00
2015,01,27,02,57,0.00
2015,01,27,02,58,0.00
2015,01,27,02,59,0.00
2015,01,27,03,00,0.00
2015,01,27,03,01,0.00
2015,01,27,03,02,0.00
2015,01,27,03,03,0.00
2015,01,27,03,04,0.00
2015,01,27,03,05,0.00
2015,01,27,03,06,0.00
2015,01,27,03,07,0.00
2015,01,27,03,08,0.00
2015,01,27,03,09,0.00
2015,01,27,03,10,0.00
2015,01,27,03,11,0.00
2015,01,27,03,12,0.00
2015,01,27,03,13,0.00
2015,01,27,03,14,0.00
2015,01,27,03,15,0.00
2015,01,27,03,16,0.00
2015,01,27,03,17,0.00
2015,01,27,03,18,0.00
2015,01,27,03,19,0.00
2015,01,27,03,20,0.00
2015,01,27,03,21,0.00
2015,01,27,03,22,0.00
2015,01,27,03,23,0.00
2015,01,27,03,24,0.00
2015,01,27,03,25,0.00
2015,01,27,03,26,0.00
2015,01,27,03,27,0.00
2015,01,27,03,28,0.00
2015,01,27,03,29,0.00
2015,01,27,03,30,0.00
2015,01,27,03,31,0.00
2015,01,27,03,32,0.00
2015,01,27,03,33,0.00
2015,01,27,03,34,0.00
2015,01,27,03,35,0.00
2015,01,27,03,36,0.00
2015,01,27,03,37,0.00
2015,01,27,03,38,0.00
2015,01,27,03,39,0.00
2015,01,27,03,40,0.00
2015,01,27,03,41,0.00
2015,01,27,03,42,0.00
2015,01,27,03,43,0.00
2015,01,27,03,44,0.00
2015,01,27,03,45,0.00
2015,01,27,03,46,0.00
2015,01,27,03,47,0.00
2015,01,27,03,48,0.00
2015,01,27,03,49,0.00
2015,01,27,03,50,0.00
2015,01,27,03,51,0.00
2015,01,27,03,52,0.00
2015,01,27,03,53,0.00
2015,01,27,03,54,0.00
2015,01,27,03,55,0.00
2015,01,27,03,56,0.00
2015,01,27,03,57,0.00
2015,01,27,03,58,0.00
2015,01,27,03,59,0.00
2015,01,27,04,00,0.00
2015,01,27,04,01,0.00
2015,01,27,04,02,0.00
2015,01,27,04,03,0.00
2015,01,27,04,04,0.00
2015,01,27,04,05,0.00
2015,01,27,04,06,0.00
2015,01,27,04,07,0.00
2015,01,27,04,08,0.00
2015,01,27,04,09,0.00
2015,01,27,04,10,0.00
2015,01,27,04,11,0.00
2015,01,27,04,12,0.00
2015,01,27,04,13,0.00
2015,01,27,04,14,0.00
2015,01,27,04,15,0.00
2015,01,27,04,16,0.00
2015,01,27,04,17,0.00
2015,01,27,04,18,0.00
2015,01,27,04,19,0.00
2015,01,27,04,20,0.00
2015,01,27,04,21,0.00
2015,01,27,04,22,0.00
2015,01,27,04,23,0.00
2015,01,27,04,24,0.00
2015,01,27,04,25,0.00
2015,01,27,04,26,0.00
2015,01,27,04,27,0.00
2015,01,27,04,28,0.00
2015,01,27,04,29,0.00
2015,01,27,04,30,0.00
2015,01,27,04,31,0.00
2015,01,27,04,32,0.00
2015,01,27,04,33,0.00
2015,01,27,04,34,0.00
2015,01,27,04,35,0.00
2015,01,27,04,36,0.00
2015,01,27,04,37,0.00
2015,01,27,04,38,0.00
2015,01,27,04,39,0.00
2015,01,27,04,40,0.00
2015,01,27,04,41,0.00
2015,01,27,04,42,0.00
2015,01,27,04,43,0.00
2015,01,27,04,44,0.00
2015,01,27,04,45,0.00
2015,01,27,04,46,0.00
2015,01,27,04,47,0.00
2015,01,27,04,48,0.00
2015,01,27,04,49,0.00
2015,01,27,04,50,0.00
2015,01,27,04,51,0.00
2015,01,27,04,52,0.00
2015,01,27,04,53,0.00
2015,01,27,04,54,0.00
2015,01,27,04,55,0.00
2015,01,27,04,56,0.00
2015,01,27,04,57,0.00
2015,01,27,04,58,0.00
2015,01,27,04,59,0.00
2015,01,27,05,00,0.00
2015,01,27,05,01,0.00
2015,01,27,05,02,0.00
2015,01,27,05,03,0.00
2015,01,27,05,04,0.00
2015,01,27,05,05,0.00
2015,01,27,05,06,0.00
2015,01,27,05,07,0.00
2015,01,27,05,08,0.00
2015,01,27,05,09,0.00
2015,01,27,05,10,0.00
2015,01,27,05,11,0.00
2015,01,27,05,12,0.00
2015,01,27,05,13,0.00
2015,01,27,05,14,0.00
2015,01,27,05,15,0.00
2015,01,27,05,16,0.00
2015,01,27,05,17,0.00
2015,01,27,05,18,0.00
2015,01,27,05,19,0.00
2015,01,27,05,20,0.00
2015,01,27,05,21,0.00
2015,01,27,05,22,0.00
2015,01,27,05,23,0.00
2015,01,27,05,24,0.00
2015,01,27,05,25,0.00
2015,01,27,05,26,0.00
2015,01,27,05,27,0.00
2015,01,27,05,28,0.00
2015,01,27,05,29,0.00
2015,01,27,05,30,0.00
2015,01,27,05,31,0.00
2015,01,27,05,32,0.00
2015,01,27,05,33,0.00
2015,01,27,05,34,0.00
2015,01,27,05,35,0.00
2015,01,27,05,36,0.00
2015,01,27,05,37,0.00
2015,01,27,05,38,0.00
2015,01,27,05,39,0.00
2015,01,27,05,40,0.00
2015,01,27,05,41,0.00
2015,01,27,05,42,0.00
2015,01,27,05,43,0.00
2015,01,27,05,44,0.00
2015,01,27,05,45,0.00
2015,01,27,05,46,0.00
2015,01,27,05,47,0.00
2015,01,27,05,48,0.00
2015,01,27,05,49,0.00
2015,01,27,05,50,0.00
2015,01,27,05,51,0.00
2015,01,27,05,52,0.00
2015,01,27,05,53,0.00
2015,01,27,05,54,0.00
2015,01,27,05,55,0.00
2015,01,27,05,56,0.00
2015,01,27,05,57,0.00
2015,01,27,05,58,0.00
2015,01,27,05,59,0.00
2015,01,27,06,00,0.00
2015,01,27,06,01,0.00
2015,01,27,06,02,0.00
2015,01,27,06,03,0.00
2015,01,27,06,04,0.00
2015,01,27,06,05,0.00
2015,01,27,06,06,0.00
2015,01,27,06,07,0.00
2015,01,27,06,08,0.00
2015,01,27,06,09,0.00
2015,01,27,06,10,0.00
2015,01,27,06,11,0.00
2015,01,27,06,12,0.00
2015,01,27,06,13,0.00
2015,01,27,06,14,0.00
2015,01,27,06,15,0.00
2015,01,27,06,16,0.00
2015,01,27,06,17,0.00
2015,01,27,06,18,0.00
2015,01,27,06,19,0.00
2015,01,27,06,20,0.00
2015,01,27,06,21,0.00
2015,01,27,06,22,0.00
2015,01,27,06,23,0.00
2015,01,27,06,24,0.00
2015,01,27,06,25,0.00
2015,01,27,06,26,0.00
2015,01,27,06,27,0.00
2015,01,27,06,28,0.00
2015,01,27,06,29,0.00
2015,01,27,06,30,0.00
2015,01,27,06,31,0.00
2015,01,27,06,32,0.00
2015,01,27,06,33,0.00
2015,01,27,06,34,0.00
2015,01,27,06,35,0.00
2015,01,27,06,36,0.00
2015,01,27,06,37,0.00
2015,01,27,06,38,0.00
2015,01,27,06,39,0.00
2015,01,27,06,40,0.00
2015,01,27,06,41,0.00
2015,01,27,06,42,0.00
2015,01,27,06,43,0.00
2015,01,27,06,44,0.00
2015,01,27,06,45,0.00
2015,01,27,06,46,0.00
2015,01,27,06,47,0.00
2015,01,27,06,48,0.00
2015,01,27,06,49,0.00
2015,01,27,06,50,0.00
2015,01,27,06,51,0.00
2015,01,27,06,52,0.00
2015,01,27,06,53,0.00
2015,01,27,06,54,0.00
2015,01,27,06,55,0.00
2015,01,27,06,56,0.00
2015,01,27,06,57,0.00
2015,01,27,06,58,0.00
2015,01,27,06,59,0.00
2015,01,27,07,00,0.00
2015,01,27,07,01,0.00
2015,01,27,07,02,0.00
2015,01,27,07,03,0.00
2015,01,27,07,04,0.00
2015,01,27,07,05,0.00
2015,01,27,07,06,0.00
2015,01,27,07,07,0.00
2015,01,27,07,08,0.00
2015,01,27,07,09,0.00
2015,01,27,07,10,0.00
2015,01,27,07,11,0.00
2015,01,27,07,12,0.00
2015,01,27,07,13,0.00
2015,01,27,07,14,0.00
2015,01,27,07,15,0.00
2015,01,27,07,16,0.00
2015,01,27,07,17,0.00
2015,01,27,07,18,0.00
2015,01,27,07,19,0.00
2015,01,27,07,20,0.00
2015,01,27,07,21,0.00
2015,01,27,07,22,0.00
2015,01,27,07,23,0.00
2015,01,27,07,24,0.00
2015,01,27,07,25,0.00
2015,01,27,07,26,0.00
2015,01,27,07,27,0.00
2015,01,27,07,28,0.00
2015,01,27,07,29,0.00
2015,01,27,07,30,0.00
2015,01,27,07,31,0.00
2015,01,27,07,32,0.00
2015,01,27,07,33,0.00
2015,01,27,07,34,0.00
2015,01,27,07,35,0.00
2015,01,27,07,36,0.00
2015,01,27,07,37,0.00
2015,01,27,07,38,0.00
2015,01,27,07,39,0.00
2015,01,27,07,40,0.00
2015,01,27,07,41,0.00
2015,01,27,07,42,0.00
2015,01,27,07,43,0.00
2015,01,27,07,44,0.00
2015,01,27,07,45,0.00
2015,01,27,07,46,0.00
2015,01,27,07,47,0.00
2015,01,27,07,48,0.00
2015,01,27,07,49,0.00
2015,01,27,07,50,0.00
2015,01,27,07,51,0.00
2015,01,27,07,52,0.00
2015,01,27,07,53,0.00
2015,01,27,07,54,0.00
2015,01,27,07,55,0.00
2015,01,27,07,56,0.00
2015,01,27,07,57,0.00
2015,01,27,07,58,0.00
2015,01,27,07,59,0.00
2015,01,27,08,00,0.00
2015,01,27,08,01,4.20
2015,01,27,08,02,5.00
2015,01,27,08,03,5.00
2015,01,27,08,04,5.00
2015,01,27,08,05,5.00
2015,01,27,08,06,5.00
2015,01,27,08,07,6.10
2015,01,27,08,08,7.00
2015,01,27,08,09,7.00
2015,01,27,08,10,7.00
2015,01,27,08,11,7.00
2015,01,27,08,12,7.00
2015,01,27,08,13,7.00
2015,01,27,08,14,7.00
2015,01,27,08,15,7.90
2015,01,27,08,16,9.00
2015,01,27,08,17,9.00
2015,01,27,08,18,10.60
2015,01,27,08,19,11.00
2015,01,27,08,20,12.00
2015,01,27,08,21,12.40
2015,01,27,08,22,14.70
2015,01,27,08,23,16.00
2015,01,27,08,24,17.00
2015,01,27,08,25,18.00
2015,01,27,08,26,18.00
2015,01,27,08,27,18.90
2015,01,27,08,28,19.00
2015,01,27,08,29,19.00
2015,01,27,08,30,19.50
2015,01,27,08,31,21.00
2015,01,27,08,32,21.90
2015,01,27,08,33,24.20
2015,01,27,08,34,25.70
2015,01,27,08,35,27.60
2015,01,27,08,36,29.80
2015,01,27,08,37,32.10
2015,01,27,08,38,33.00
2015,01,27,08,39,33.60
2015,01,27,08,40,35.80
2015,01,27,08,41,38.00
2015,01,27,08,42,39.00
2015,01,27,08,43,39.80
2015,01,27,08,44,40.00
2015,01,27,08,45,41.90
2015,01,27,08,46,42.20
2015,01,27,08,47,44.70
2015,01,27,08,48,47.70
2015,01,27,08,49,50.80
2015,01,27,08,50,54.70
2015,01,27,08,51,57.30
2015,01,27,08,52,59.50
2015,01,27,08,53,60.00
2015,01,27,08,54,61.90
2015,01,27,08,55,62.20
2015,01,27,08,56,63.60
2015,01,27,08,57,65.70
2015,01,27,08,58,67.00
2015,01,27,08,59,68.10
2015,01,27,09,00,69.00
2015,01,27,09,01,69.00
2015,01,27,09,02,69.90
2015,01,27,09,03,69.00
2015,01,27,09,04,69.00
2015,01,27,09,05,69.00
2015,01,27,09,06,69.00
2015,01,27,09,07,69.50
2015,01,27,09,08,71.20
2015,01,27,09,09,75.00
2015,01,27,09,10,76.80
2015,01,27,09,11,79.00
2015,01,27,09,12,81.30
2015,01,27,09,13,83.00
2015,01,27,09,14,83.30
2015,01,27,09,15,84.90
2015,01,27,09,16,84.90
2015,01,27,09,17,84.00
2015,01,27,09,18,85.60
2015,01,27,09,19,89.60
2015,01,27,09,20,89.60
2015,01,27,09,21,86.00
2015,01,27,09,22,86.00
2015,01,27,09,23,85.20
2015,01,27,09,24,80.20
2015,01,27,09,25,77.00
2015,01,27,09,26,76.20
2015,01,27,09,27,78.40
2015,01,27,09,28,79.20
2015,01,27,09,29,84.90
2015,01,27,09,30,88.20
2015,01,27,09,31,82.40
2015,01,27,09,32,79.20
2015,01,27,09,33,77.00
2015,01,27,09,34,77.00
2015,01,27,09,35,77.00
2015,01,27,09,36,77.00
2015,01,27,09,37,70.50
2015,01,27,09,38,72.40
2015,01,27,09,39,74.00
2015,01,27,09,40,75.20
2015,01,27,09,41,78.00
2015,01,27,09,42,77.80
2015,01,27,09,43,77.00
2015,01,27,09,44,77.00
2015,01,27,09,45,78.80
2015,01,27,09,46,79.20
2015,01,27,09,47,81.40
2015,01,27,09,48,83.30
2015,01,27,09,49,84.00
2015,01,27,09,50,85.00
2015,01,27,09,51,88.60
2015,01,27,09,52,90.00
2015,01,27,09,53,90.00
2015,01,27,09,54,90.00
2015,01,27,09,55,90.20
2015,01,27,09,56,91.50
2015,01,27,09,57,93.70
2015,01,27,09,58,95.00
2015,01,27,09,59,96.10
2015,01,27,10,00,97.00
2015,01,27,10,01,97.00
2015,01,27,10,02,97.90
2015,01,27,10,03,98.20
2015,01,27,10,04,99.60
2015,01,27,10,05,98.00
2015,01,27,10,06,98.80
2015,01,27,10,07,100.00
2015,01,27,10,08,100.00
2015,01,27,10,09,101.50
2015,01,27,10,10,103.70
2015,01,27,10,11,104.00
2015,01,27,10,12,107.30
2015,01,27,10,13,108.50
2015,01,27,10,14,106.30
2015,01,27,10,15,105.00
2015,01,27,10,16,105.00
2015,01,27,10,17,104.30
2015,01,27,10,18,104.00
2015,01,27,10,19,100.60
2015,01,27,10,20,99.70
2015,01,27,10,21,95.40
2015,01,27,10,22,97.20
2015,01,27,10,23,95.80
2015,01,27,10,24,94.20
2015,01,27,10,25,93.30
2015,01,27,10,26,97.10
2015,01,27,10,27,97.20
2015,01,27,10,28,95.20
2015,01,27,10,29,97.00
2015,01,27,10,30,99.00
2015,01,27,10,31,106.40
2015,01,27,10,32,110.70
2015,01,27,10,33,114.60
2015,01,27,10,34,118.60
2015,01,27,10,35,120.70
2015,01,27,10,36,125.90
2015,01,27,10,37,128.10
2015,01,27,10,38,129.70
2015,01,27,10,39,128.00
2015,01,27,10,40,126.80
2015,01,27,10,41,124.10
2015,01,27,10,42,121.90
2015,01,27,10,43,118.90
2015,01,27,10,44,118.00
2015,01,27,10,45,114.60
2015,01,27,10,46,112.70
2015,01,27,10,47,109.00
2015,01,27,10,48,107.70
2015,01,27,10,49,103.70
2015,01,27,10,50,103.10
2015,01,27,10,51,102.80
2015,01,27,10,52,103.50
2015,01,27,10,53,106.40
2015,01,27,10,54,120.30
2015,01,27,10,55,97.50
2015,01,27,10,56,101.50
2015,01,27,10,57,99.30
2015,01,27,10,58,104.80
2015,01,27,10,59,113.50
2015,01,27,11,00,144.60
2015,01,27,11,01,169.50
2015,01,27,11,02,181.20
2015,01,27,11,03,208.20
2015,01,27,11,04,207.80
2015,01,27,11,05,185.40
2015,01,27,11,06,221.30
2015,01,27,11,07,269.00
2015,01,27,11,08,167.10
2015,01,27,11,09,110.60
2015,01,27,11,10,167.20
2015,01,27,11,11,250.50
2015,01,27,11,12,164.10
2015,01,27,11,13,100.40
2015,01,27,11,14,120.20
2015,01,27,11,15,166.20
2015,01,27,11,16,197.10
2015,01,27,11,17,193.00
2015,01,27,11,18,221.70
2015,01,27,11,19,308.10
2015,01,27,11,20,272.40
2015,01,27,11,21,257.50
2015,01,27,11,22,245.20
2015,01,27,11,23,286.00
2015,01,27,11,24,200.40
2015,01,27,11,25,183.40
2015,01,27,11,26,217.60
2015,01,27,11,27,217.20
2015,01,27,11,28,214.00
2015,01,27,11,29,165.60
2015,01,27,11,30,158.00
2015,01,27,11,31,164.20
2015,01,27,11,32,132.00
2015,01,27,11,33,134.60
2015,01,27,11,34,125.60
2015,01,27,11,35,135.70
2015,01,27,11,36,132.40
2015,01,27,11,37,130.00
2015,01,27,11,38,161.10
2015,01,27,11,39,133.10
2015,01,27,11,40,108.90
2015,01,27,11,41,108.20
2015,01,27,11,42,121.20
2015,01,27,11,43,157.90
2015,01,27,11,44,176.90
2015,01,27,11,45,180.70
2015,01,27,11,46,157.70
2015,01,27,11,47,135.20
2015,01,27,11,48,126.70
2015,01,27,11,49,134.20
2015,01,27,11,50,163.50
2015,01,27,11,51,181.20
2015,01,27,11,52,194.30
2015,01,27,11,53,184.80
2015,01,27,11,54,147.90
2015,01,27,11,55,104.90
2015,01,27,11,56,82.80
2015,01,27,11,57,70.00
2015,01,27,11,58,73.60
2015,01,27,11,59,81.60
2015,01,27,12,00,108.10
2015,01,27,12,01,136.00
2015,01,27,12,02,190.30
2015,01,27,12,03,199.00
2015,01,27,12,04,233.50
2015,01,27,12,05,429.00
2015,01,27,12,06,429.00
2015,01,27,12,07,408.30
2015,01,27,12,08,340.70
2015,01,27,12,09,350.10
2015,01,27,12,10,421.50
2015,01,27,12,11,439.00
2015,01,27,12,12,225.20
2015,01,27,12,13,177.60
2015,01,27,12,14,141.30
2015,01,27,12,15,104.30
2015,01,27,12,16,99.00
2015,01,27,12,17,101.80
2015,01,27,12,18,112.60
2015,01,27,12,19,131.20
2015,01,27,12,20,148.20
2015,01,27,12,21,137.90
2015,01,27,12,22,155.20
2015,01,27,12,23,159.10
2015,01,27,12,24,164.10
2015,01,27,12,25,165.30
2015,01,27,12,26,182.60
2015,01,27,12,27,186.90
2015,01,27,12,28,191.80
2015,01,27,12,29,195.10
2015,01,27,12,30,201.10
2015,01,27,12,31,223.00
2015,01,27,12,32,298.20
2015,01,27,12,33,411.00
2015,01,27,12,34,288.30
2015,01,27,12,35,238.20
2015,01,27,12,36,273.40
2015,01,27,12,37,190.70
2015,01,27,12,38,201.60
2015,01,27,12,39,215.60
2015,01,27,12,40,196.30
2015,01,27,12,41,170.00
2015,01,27,12,42,190.00
2015,01,27,12,43,190.00
2015,01,27,12,44,202.80
2015,01,27,12,45,162.80
2015,01,27,12,46,146.10
2015,01,27,12,47,114.90
2015,01,27,12,48,152.10
2015,01,27,12,49,121.40
2015,01,27,12,50,124.20
2015,01,27,12,51,94.30
2015,01,27,12,52,80.40
2015,01,27,12,53,67.80
2015,01,27,12,54,69.20
2015,01,27,12,55,75.10
2015,01,27,12,56,147.60
2015,01,27,12,57,87.70
2015,01,27,12,58,84.70
2015,01,27,12,59,69.90
2015,01,27,13,00,113.10
2015,01,27,13,01,139.00
2015,01,27,13,02,317.40
2015,01,27,13,03,397.20
2015,01,27,13,04,393.60
2015,01,27,13,05,325.20
2015,01,27,13,06,387.70
2015,01,27,13,07,383.00
2015,01,27,13,08,378.30
2015,01,27,13,09,381.10
2015,01,27,13,10,347.10
2015,01,27,13,11,299.70
2015,01,27,13,12,369.90
2015,01,27,13,13,347.20
2015,01,27,13,14,346.00
2015,01,27,13,15,373.00
2015,01,27,13,16,372.00
2015,01,27,13,17,366.60
2015,01,27,13,18,364.80
2015,01,27,13,19,357.10
2015,01,27,13,20,365.40
2015,01,27,13,21,379.80
2015,01,27,13,22,379.80
2015,01,27,13,23,379.00
2015,01,27,13,24,376.60
2015,01,27,13,25,400.80
2015,01,27,13,26,380.70
2015,01,27,13,27,343.50
2015,01,27,13,28,411.60
2015,01,27,13,29,431.80
2015,01,27,13,30,436.00
2015,01,27,13,31,436.00
2015,01,27,13,32,436.00
2015,01,27,13,33,436.00
2015,01,27,13,34,458.90
2015,01,27,13,35,490.70
2015,01,27,13,36,428.30
2015,01,27,13,37,410.00
2015,01,27,13,38,410.00
2015,01,27,13,39,427.80
2015,01,27,13,40,496.30
2015,01,27,13,41,487.80
2015,01,27,13,42,485.00
2015,01,27,13,43,389.50
2015,01,27,13,44,338.00
2015,01,27,13,45,232.00
2015,01,27,13,46,207.00
2015,01,27,13,47,204.00
2015,01,27,13,48,204.70
2015,01,27,13,49,208.40
2015,01,27,13,50,212.40
2015,01,27,13,51,216.00
2015,01,27,13,52,218.00
2015,01,27,13,53,216.50
2015,01,27,13,54,214.30
2015,01,27,13,55,213.10
2015,01,27,13,56,214.00
2015,01,27,13,57,213.70
2015,01,27,13,58,212.20
2015,01,27,13,59,210.10
2015,01,27,14,00,209.00
2015,01,27,14,01,207.60
2015,01,27,14,02,206.20
2015,01,27,14,03,204.20
2015,01,27,14,04,199.90
2015,01,27,14,05,198.50
2015,01,27,14,06,195.70
2015,01,27,14,07,193.80
2015,01,27,14,08,191.50
2015,01,27,14,09,186.10
2015,01,27,14,10,182.00
2015,01,27,14,11,176.80
2015,01,27,14,12,170.70
2015,01,27,14,13,152.90
2015,01,27,14,14,138.20
2015,01,27,14,15,128.20
2015,01,27,14,16,127.20
2015,01,27,14,17,131.10
2015,01,27,14,18,138.30
2015,01,27,14,19,143.40
2015,01,27,14,20,154.20
2015,01,27,14,21,167.00
2015,01,27,14,22,173.40
2015,01,27,14,23,180.90
2015,01,27,14,24,185.00
2015,01,27,14,25,185.00
2015,01,27,14,26,191.00
2015,01,27,14,27,231.40
2015,01,27,14,28,243.50
2015,01,27,14,29,218.70
2015,01,27,14,30,249.10
2015,01,27,14,31,242.80
2015,01,27,14,32,253.40
2015,01,27,14,33,267.20
2015,01,27,14,34,244.60
2015,01,27,14,35,230.30
2015,01,27,14,36,184.80
2015,01,27,14,37,143.90
2015,01,27,14,38,118.10
2015,01,27,14,39,107.60
2015,01,27,14,40,97.90
2015,01,27,14,41,91.90
2015,01,27,14,42,88.20
2015,01,27,14,43,83.00
2015,01,27,14,44,77.30
2015,01,27,14,45,72.80
2015,01,27,14,46,63.00
2015,01,27,14,47,50.30
2015,01,27,14,48,44.00
2015,01,27,14,49,48.70
2015,01,27,14,50,63.90
2015,01,27,14,51,80.40
2015,01,27,14,52,93.80
2015,01,27,14,53,99.20
2015,01,27,14,54,101.70
2015,01,27,14,55,104.10
2015,01,27,14,56,107.60
2015,01,27,14,57,112.80
2015,01,27,14,58,119.10
2015,01,27,14,59,138.60
2015,01,27,15,00,160.00
2015,01,27,15,01,160.00
2015,01,27,15,02,237.60
2015,01,27,15,03,177.80
2015,01,27,15,04,104.30
2015,01,27,15,05,97.40
2015,01,27,15,06,93.20
2015,01,27,15,07,89.10
2015,01,27,15,08,86.90
2015,01,27,15,09,86.00
2015,01,27,15,10,86.00
2015,01,27,15,11,84.40
2015,01,27,15,12,84.00
2015,01,27,15,13,84.30
2015,01,27,15,14,87.00
2015,01,27,15,15,92.40
2015,01,27,15,16,100.20
2015,01,27,15,17,108.90
2015,01,27,15,18,120.80
2015,01,27,15,19,134.00
2015,01,27,15,20,160.40
2015,01,27,15,21,164.20
2015,01,27,15,22,156.60
2015,01,27,15,23,150.20
2015,01,27,15,24,147.30
2015,01,27,15,25,146.00
2015,01,27,15,26,147.20
2015,01,27,15,27,148.70
2015,01,27,15,28,150.60
2015,01,27,15,29,154.70
2015,01,27,15,30,156.20
2015,01,27,15,31,157.40
2015,01,27,15,32,154.40
2015,01,27,15,33,150.90
2015,01,27,15,34,141.50
2015,01,27,15,35,130.20
2015,01,27,15,36,122.80
2015,01,27,15,37,121.00
2015,01,27,15,38,120.90
2015,01,27,15,39,120.20
2015,01,27,15,40,120.10
2015,01,27,15,41,116.50
2015,01,27,15,42,113.60
2015,01,27,15,43,110.70
2015,01,27,15,44,109.00
2015,01,27,15,45,109.00
2015,01,27,15,46,104.80
2015,01,27,15,47,106.30
2015,01,27,15,48,102.00
2015,01,27,15,49,101.40
2015,01,27,15,50,100.80
2015,01,27,15,51,103.10
2015,01,27,15,52,102.80
2015,01,27,15,53,102.00
2015,01,27,15,54,100.40
2015,01,27,15,55,97.00
2015,01,27,15,56,90.50
2015,01,27,15,57,87.00
2015,01,27,15,58,88.60
2015,01,27,15,59,81.80
2015,01,27,16,00,81.30
2015,01,27,16,01,79.10
2015,01,27,16,02,77.00
2015,01,27,16,03,80.60
2015,01,27,16,04,70.30
2015,01,27,16,05,64.60
2015,01,27,16,06,62.70
2015,01,27,16,07,61.20
2015,01,27,16,08,59.00
2015,01,27,16,09,55.70
2015,01,27,16,10,54.00
2015,01,27,16,11,53.20
2015,01,27,16,12,51.30
2015,01,27,16,13,52.40
2015,01,27,16,14,46.80
2015,01,27,16,15,45.40
2015,01,27,16,16,43.20
2015,01,27,16,17,42.00
2015,01,27,16,18,40.70
2015,01,27,16,19,40.00
2015,01,27,16,20,41.70
2015,01,27,16,21,40.20
2015,01,27,16,22,42.00
2015,01,27,16,23,41.50
2015,01,27,16,24,40.00
2015,01,27,16,25,39.50
2015,01,27,16,26,39.00
2015,01,27,16,27,37.60
2015,01,27,16,28,35.50
2015,01,27,16,29,35.00
2015,01,27,16,30,35.00
2015,01,27,16,31,34.60
2015,01,27,16,32,33.00
2015,01,27,16,33,32.60
2015,01,27,16,34,32.00
2015,01,27,16,35,30.70
2015,01,27,16,36,28.60
2015,01,27,16,37,26.30
2015,01,27,16,38,25.00
2015,01,27,16,39,23.00
2015,01,27,16,40,22.50
2015,01,27,16,41,20.30
2015,01,27,16,42,19.00
2015,01,27,16,43,18.40
2015,01,27,16,44,16.70
2015,01,27,16,45,16.00
2015,01,27,16,46,14.30
2015,01,27,16,47,14.00
2015,01,27,16,48,13.60
2015,01,27,16,49,12.00
2015,01,27,16,50,12.00
2015,01,27,16,51,12.00
2015,01,27,16,52,11.40
2015,01,27,16,53,11.00
2015,01,27,16,54,11.00
2015,01,27,16,55,9.20
2015,01,27,16,56,9.00
2015,01,27,16,57,9.00
2015,01,27,16,58,8.40
2015,01,27,16,59,7.00
2015,01,27,17,00,7.00
2015,01,27,17,01,7.00
2015,01,27,17,02,5.50
2015,01,27,17,03,5.00
2015,01,27,17,04,4.80
2015,01,27,17,05,0.00
2015,01,27,17,06,0.00
2015,01,27,17,07,0.00
2015,01,27,17,08,0.00
2015,01,27,17,09,0.00
2015,01,27,17,10,0.00
2015,01,27,17,11,0.00
2015,01,27,17,12,0.00
2015,01,27,17,13,0.00
2015,01,27,17,14,0.00
2015,01,27,17,15,0.00
2015,01,27,17,16,0.00
2015,01,27,17,17,0.00
2015,01,27,17,18,0.00
2015,01,27,17,19,0.00
2015,01,27,17,20,0.00
2015,01,27,17,21,0.00
2015,01,27,17,22,0.00
2015,01,27,17,23,0.00
2015,01,27,17,24,0.00
2015,01,27,17,25,0.00
2015,01,27,17,26,0.00
2015,01,27,17,27,0.00
2015,01,27,17,28,0.00
2015,01,27,17,29,0.00